مشهد, ایران

06:27 PM +0330 on نوامبر 24, 2017 (GMT +0330)
Shahid Hashemi Nejad International | | Change Station

Elev 3245 ft 36.27 °N, 59.63 °E | Updated 27 minutes ago

ابرهاى پراكنده
ابرهاى پراكنده
50 °F
Feels Like 50 °F
N
5
باد متغير باد from WNW

امروز
High -- | Low -- °F
--% Chance of Precip.
دیروز
High -- | Low -- °F
Precip. -- در
فشار 29.95 در
ديد 4.3 مايل، ميل (در برابر كيلومتر
ابری Few 2500 ft
بیشتر ابری 12000 ft
قطره شبنم 50 °F
رطوبت 100%
بارش باران 0.00 در
برف عمیق Not available.
6:19 AM 4:18 PM
Waxing Crescent, 30% visible
METAR OIMM 241430Z 29004KT 7000 FEW025 BKN120 10/10 Q1014 A2997
فشار 29.95 در
ديد 4.3 مايل، ميل (در برابر كيلومتر
ابری Few 2500 ft
بیشتر ابری 12000 ft
قطره شبنم 50 °F
رطوبت 100%
بارش باران 0.00 در
برف عمیق Not available.
6:19 AM 4:18 PM
Waxing Crescent, 30% visible
METAR OIMM 241430Z 29004KT 7000 FEW025 BKN120 10/10 Q1014 A2997

Get Severe Weather Alerts

Thanks for signing up!

Be on the lookout for a verification email in your inbox.

You'll start receiving the daily forecast at 6 AM.

×

10-Day Weather Forecast

No radar image for this location.
×

Almanac

ستاره شناسی

Nov. 24, 2017 Rise Set
وقت حقیقی
تاریک و روشن اجتماعی
تاریک روشن دریایی
شفق و فلق نجومی
ماه
میزان روشنایی روز
طول روز
Tomorrow will be .
, % of the Moon is Illuminated

Today's Extremes

Country Highs Country Lows

Community

WunderPhotos

Category 6

Welcome to Category 6. This is the collective home for Weather Underground's featured writeups by Dr. Jeff Masters (right), Bob Henson (left), Chris Burt, and other regular contributors.

Nearby

تمیزی هوا

  تمیزی هوا AQ Index آلاینده
Not available.

عمق برف

Station Depth Elevation

Earthquake Activity

شهر Distance Mag. Time & Date
Minimum magnitude displayed is 2.5.

Coastal Water Temperatures

منطقه درجه حرارت

Stations

Nearby Weather Stations

Station Location دما باد سرد قطره شبنم رطوبت باد Precip. Elev ارتقا دادن Type